Theta_e
339 340 338 338 341 345 345 346 347 347 347 346 346 347 346 345 342 337 337 337 339 338 337 335 337 339 337 336 334 337 338 334 331 330 336 336 332 340 340 327 334 336 338
339 345 341 339 339 342 344 344 345 346 345 344 345 345 345 345 343 338 336 336 336 337 339 336 335 338 338 334 338 332 335 336 335 336 336 337 328 336 330 329 331 331 336
340 342 342 340 338 339 340 341 342 343 343 343 343 342 343 343 341 336 336 337 337 340 341 337 335 338 340 330 330 331 341 336 341 339 335 340 339 333 335 333 331 333 337
342 343 342 340 338 338 339 339 340 340 340 340 339 339 339 338 337 336 338 339 341 342 340 341 337 342 340 331 339 338 339 337 340 339 342 342 341 335 340 338 339 336 324
344 342 342 341 339 338 338 338 339 340 339 339 339 339 339 338 337 338 340 338 341 342 342 339 340 341 339 336 340 336 336 336 337 338 337 340 342 328 330 328 327 325 322
344 343 342 342 341 339 340 339 338 339 339 339 338 338 339 339 339 340 339 336 338 339 340 341 341 339 339 341 334 337 335 331 335 335 333 334 339 325 339 327 323 323 329
344 343 343 343 342 341 339 339 338 338 338 337 337 336 339 339 340 340 338 336 335 337 339 340 340 341 338 335 337 336 333 334 333 333 334 340 332 327 336 339 335 338 324
344 344 343 343 343 341 339 337 335 336 337 336 335 335 336 337 337 336 336 336 336 336 338 341 342 341 341 335 338 334 337 339 339 338 337 338 334 325 327 333 335 328 326
345 344 344 344 343 340 340 337 335 333 335 334 336 333 335 336 342 338 338 338 339 340 338 339 340 340 341 333 339 340 341 342 340 342 340 340 337 335 327 338 334 327 324
344 344 343 343 341 339 338 337 336 334 332 332 341 333 335 342 339 333 336 337 339 340 340 340 340 340 341 337 332 339 341 341 342 340 340 342 339 335 336 339 338 331 326
344 343 342 339 338 337 336 336 335 334 333 331 331 332 335 341 333 332 334 335 335 337 338 340 340 341 340 340 335 336 339 341 341 339 340 341 341 339 336 336 339 338 327
343 341 340 337 337 336 334 334 333 333 337 332 331 334 334 333 335 333 332 336 337 336 335 337 340 341 340 343 340 333 341 342 341 342 341 341 341 341 340 334 334 334 327
342 341 338 337 337 336 335 334 333 333 333 332 333 333 333 334 341 341 339 342 342 342 342 336 336 340 341 340 341 340 333 336 339 341 342 340 342 342 341 339 330 332 330
343 342 340 337 337 337 336 336 336 335 335 335 336 335 334 333 339 343 345 345 338 341 344 340 335 335 339 340 339 339 336 331 332 338 341 341 341 342 341 339 336 331 328
345 345 343 339 338 338 337 337 337 337 338 339 339 339 339 337 339 343 345 342 344 343 343 345 342 340 339 341 340 339 338 336 338 333 335 336 340 341 342 342 339 336 333
346 347 345 336 339 337 341 339 339 339 342 342 343 343 344 343 343 343 343 342 342 341 340 341 343 343 341 342 342 341 340 338 337 337 337 333 337 341 341 341 340 339 339
348 346 346 342 338 335 340 345 344 339 338 342 345 344 344 343 343 342 342 344 343 343 342 342 340 341 341 341 339 339 340 342 341 340 339 339 336 335 338 340 342 339 342
350 348 346 339 340 340 339 347 343 341 340 339 341 344 343 343 344 343 344 343 343 344 345 344 343 342 343 343 342 340 339 338 338 337 339 341 341 340 338 339 340 342 343
350 350 347 344 344 343 341 340 342 341 339 339 340 340 343 343 343 345 345 345 345 344 343 342 341 340 342 341 341 341 340 341 339 339 340 338 341 341 341 339 341 341 341
350 350 350 346 345 344 343 340 342 341 339 338 338 341 343 343 345 345 343 342 342 342 341 340 340 341 342 342 341 341 341 341 339 339 340 342 343 342 341 342 341 342 342
350 350 350 347 346 343 342 343 340 340 338 338 337 340 341 345 345 344 343 340 339 339 340 340 340 340 341 341 342 341 341 339 340 341 341 340 341 342 342 343 343 343 342
350 349 349 349 347 339 336 336 338 340 338 336 339 336 339 344 344 342 341 339 340 341 341 341 340 340 340 340 342 342 343 339 337 336 337 338 340 341 342 341 338 342 342
350 349 349 350 347 336 336 336 337 336 336 339 340 341 344 344 341 340 340 340 339 338 337 337 337 339 341 341 341 342 343 341 339 338 340 341 339 340 339 338 338 341 342
349 348 350 350 347 336 335 335 336 338 340 344 344 343 342 341 339 340 340 338 334 335 337 337 339 340 341 341 340 341 341 339 342 340 339 338 337 337 337 338 340 340 341
349 348 350 350 346 337 335 334 337 341 343 343 342 343 341 339 337 334 333 338 340 341 341 341 340 340 340 341 341 340 341 341 341 339 341 338 338 338 338 339 341 342 342
348 348 350 350 343 337 335 338 343 344 344 343 342 341 338 335 332 334 338 340 340 341 341 339 340 339 340 340 340 340 340 341 343 341 339 339 339 339 339 339 340 342 341
Wind_Speed
21 19 18 17 17 16 16 15 14 14 15 15 15 15 15 14 13 11 10 9 7 7 6 7 7 7 7 7 7 8 8 8 10 10 12 12 12 14 12 14 15 14 13
23 19 17 16 17 17 15 15 14 13 13 13 14 14 14 13 11 10 9 8 7 6 5 6 6 7 6 7 7 7 8 9 12 12 13 11 10 14 12 13 15 14 14
23 20 17 15 16 16 16 15 14 13 13 13 13 12 12 11 10 10 8 7 6 7 5 5 5 6 6 6 7 9 9 10 11 12 13 10 10 13 13 13 13 14 12
22 20 18 16 16 16 15 14 14 14 13 13 12 12 11 11 10 9 8 7 6 7 7 4 4 6 5 7 9 10 10 11 10 10 10 11 9 11 11 11 12 11 10
21 19 18 16 15 15 15 14 13 13 13 12 11 11 11 10 10 9 8 6 6 8 6 6 4 6 6 6 8 9 10 10 10 9 9 9 8 9 11 9 10 9 11
20 19 18 16 14 13 13 13 12 12 12 11 9 9 10 10 10 8 6 5 6 7 6 6 6 4 8 9 9 10 10 10 9 8 8 7 6 8 10 8 9 10 11
20 19 18 15 14 12 12 11 11 11 11 10 9 10 9 9 8 7 5 6 6 7 8 7 5 5 8 8 9 11 11 11 9 8 7 6 5 7 10 8 8 8 9
19 18 17 15 13 12 12 12 11 11 11 10 9 9 10 9 8 6 5 4 4 6 7 5 5 5 9 8 9 13 11 10 8 6 4 3 4 6 9 8 7 7 8
18 17 16 15 13 11 11 11 11 11 10 10 10 10 10 9 7 6 6 6 5 5 4 5 4 4 8 9 10 8 11 8 7 6 5 3 2 4 6 8 6 6 9
17 16 15 14 13 11 11 11 11 10 10 10 10 9 10 8 7 6 5 4 4 5 5 6 5 4 7 10 10 10 9 8 7 8 6 5 2 3 5 7 8 6 7
18 17 15 13 12 11 11 11 11 11 11 11 10 10 10 8 8 7 6 5 4 4 5 6 6 5 6 10 10 11 11 9 8 7 7 6 4 3 6 9 8 7 7
19 16 14 12 11 11 12 12 12 12 12 12 11 11 10 9 8 8 7 6 4 3 4 5 7 7 7 8 10 12 12 12 10 7 7 8 6 4 5 6 8 8 8
17 14 13 12 11 11 12 13 13 13 12 12 12 11 11 10 9 8 6 5 5 5 5 5 6 7 8 9 10 12 13 14 13 9 9 8 8 8 6 7 7 8 8
16 13 12 13 13 12 14 14 13 13 13 12 11 11 11 11 12 9 7 8 7 7 7 6 6 7 8 8 9 10 13 13 14 14 12 11 9 9 8 8 9 10 10
17 16 13 13 12 16 17 14 12 14 14 13 12 12 12 12 12 11 10 9 9 11 9 9 8 6 8 8 9 11 12 15 14 15 15 15 14 12 12 13 11 11 12
19 17 15 2 7 15 19 17 17 17 17 17 15 13 13 13 13 13 12 11 9 10 11 10 10 10 8 9 9 9 13 14 14 14 15 16 17 16 14 14 13 14 13
19 14 17 15 8 11 21 19 18 19 21 18 17 16 15 13 13 12 12 11 9 9 11 11 13 14 14 14 13 13 11 13 14 14 15 15 17 20 19 16 15 15 17
20 15 9 13 7 11 14 19 17 16 14 13 10 12 14 12 15 13 12 11 13 14 14 14 14 16 17 16 17 16 17 16 17 16 17 16 17 17 19 18 17 17 16
21 20 11 15 10 16 15 22 18 16 13 10 10 11 14 12 12 13 11 13 15 13 13 14 15 18 19 18 17 17 19 21 22 22 19 19 19 17 17 19 17 16 16
20 20 16 9 11 13 13 18 15 10 11 6 2 4 7 9 11 10 9 8 10 11 12 15 18 19 18 19 20 19 20 21 22 25 19 17 19 17 18 17 17 17 15
19 19 18 12 9 7 6 8 8 9 13 9 4 1 5 6 8 8 8 8 9 11 12 13 14 17 19 20 19 20 20 18 18 19 21 20 19 18 20 18 16 16 15
17 16 14 13 7 2 3 2 5 11 15 9 3 3 5 6 7 8 9 9 10 13 14 15 18 18 18 17 17 17 9 13 20 18 18 18 18 17 19 19 17 15 14
16 12 10 12 4 6 7 7 10 14 12 9 6 5 6 5 7 9 9 10 12 15 17 17 17 17 17 15 15 12 6 8 9 15 18 16 16 18 17 18 18 17 15
14 10 11 10 7 9 7 9 10 11 8 6 5 5 3 5 7 7 10 13 13 13 12 12 13 13 14 16 15 18 18 6 5 4 13 17 18 17 19 17 14 15 13
12 10 13 11 9 11 11 12 11 10 9 7 6 2 3 5 7 9 9 9 9 7 6 7 9 11 13 15 15 15 19 19 17 12 6 9 11 14 16 18 15 12 12
12 12 15 13 12 12 15 14 10 7 9 7 3 3 6 6 7 8 7 6 6 5 4 6 7 7 10 11 13 14 14 16 14 14 11 7 3 3 9 13 16 15 12
Wind_Direction
161 153 152 153 158 159 154 151 147 147 146 147 148 150 150 144 142 140 137 130 127 130 135 127 123 145 134 131 136 142 139 137 127 124 118 120 119 122 124 122 116 123 118
154 152 148 152 156 162 162 157 154 153 151 148 149 152 154 152 147 146 144 143 141 142 135 137 134 141 147 144 148 151 136 139 123 120 129 129 129 132 137 127 123 130 127
155 154 151 151 156 160 159 158 158 160 157 151 151 152 155 158 158 157 152 150 147 127 119 119 142 138 148 149 144 141 131 122 130 131 125 122 127 138 129 126 129 123 129
157 158 158 153 155 157 155 156 159 159 157 156 156 156 161 161 159 159 156 155 145 142 130 130 143 147 146 143 141 141 141 132 141 134 131 128 133 133 136 132 134 140 137
162 161 162 158 156 154 154 157 159 161 160 159 158 160 161 164 165 169 158 151 148 148 158 139 146 156 146 138 146 152 149 143 155 145 139 140 138 149 155 158 156 148 140
166 165 166 163 160 158 160 158 160 164 164 163 163 165 166 166 170 173 162 159 155 142 149 169 178 157 160 160 164 159 156 153 143 143 137 143 146 151 149 142 152 145 148
170 169 169 168 167 167 166 165 166 168 170 170 168 169 170 172 175 181 181 180 162 157 167 172 180 186 180 184 178 166 155 150 142 140 139 145 149 152 156 154 153 160 165
174 170 173 174 176 179 175 173 174 175 176 174 176 174 173 179 181 180 182 187 177 170 167 177 168 170 192 185 176 174 178 165 166 162 161 156 153 160 174 174 181 182 176
179 175 175 179 185 188 189 186 183 182 181 178 180 178 175 177 179 183 180 178 176 166 168 175 184 160 188 186 182 179 189 185 184 192 189 184 179 178 182 187 194 193 182
179 182 184 189 193 198 199 197 196 192 187 187 187 185 180 181 187 191 181 180 178 170 173 173 184 178 186 196 199 191 185 196 199 204 203 204 194 195 199 203 228 212 198
185 187 190 197 201 204 209 206 204 202 200 196 191 190 189 194 193 191 183 182 187 193 176 187 197 191 182 197 205 205 211 209 193 198 213 219 226 234 212 205 218 218 221
190 191 194 201 210 212 213 211 212 206 206 202 198 197 199 200 196 198 193 188 190 216 205 198 202 201 195 195 204 209 213 211 210 223 224 226 223 238 233 231 223 224 227
191 194 200 206 215 223 227 221 219 214 214 210 206 204 206 204 204 199 197 215 220 245 245 230 208 213 212 210 209 213 220 223 229 233 225 230 233 236 239 242 237 233 234
194 198 208 216 220 231 232 231 233 230 223 221 219 217 216 215 216 220 218 236 263 251 258 239 227 215 213 222 232 228 223 229 233 236 236 240 243 241 241 244 241 239 237
199 204 206 218 224 228 231 238 252 255 244 238 230 229 230 222 214 224 234 248 245 241 249 246 239 230 215 222 229 238 233 233 243 239 239 237 242 246 250 256 249 243 242
204 206 204 170 243 256 232 222 234 237 246 248 245 232 228 229 235 236 238 242 248 241 253 254 250 240 234 231 232 240 242 239 236 240 246 243 239 243 252 249 251 251 253
210 208 208 238 296 286 240 227 223 238 236 256 250 251 241 243 246 247 248 247 248 243 244 255 254 253 250 245 244 240 251 246 243 245 247 248 245 247 250 252 252 250 249
221 217 233 188 284 314 254 228 231 224 245 251 246 264 256 260 255 256 250 249 250 251 255 255 266 260 256 253 253 254 249 249 247 247 250 248 249 246 249 248 251 250 252
237 231 253 214 280 293 301 228 239 234 239 237 238 255 247 245 247 251 262 271 248 260 260 267 266 265 260 257 261 257 251 250 247 244 259 251 250 252 252 247 250 253 255
245 245 254 272 270 305 311 244 252 222 215 201 346 274 247 254 241 243 249 253 254 265 272 274 272 267 264 254 256 259 254 254 249 238 241 247 247 250 250 250 250 255 256
249 255 237 250 281 292 307 299 275 215 202 219 314 131 219 261 252 245 265 273 275 277 274 272 274 270 266 259 255 254 258 251 241 237 241 245 245 253 253 254 258 257 256
251 260 241 233 269 222 50 49 142 145 193 211 136 348 249 243 262 275 276 280 281 279 272 270 272 270 263 256 247 248 255 249 239 241 247 242 241 248 249 255 260 260 259
247 244 228 216 219 168 119 129 138 147 169 163 152 196 213 239 272 280 281 280 284 282 279 273 269 262 257 254 242 225 210 222 227 238 233 229 243 245 250 262 254 252 263
231 237 216 207 210 183 156 142 146 143 151 161 158 172 212 278 288 291 289 289 286 282 278 272 263 257 247 251 245 231 221 189 200 210 225 236 235 251 253 254 244 248 260
218 226 221 213 209 191 175 157 155 169 177 170 164 202 304 318 315 315 315 305 300 294 283 276 276 267 258 250 247 242 230 232 236 234 242 232 242 243 244 237 237 241 244
214 222 212 216 199 185 173 168 176 178 166 154 135 16 343 342 353 344 334 334 328 309 298 301 307 286 260 250 242 241 237 231 228 224 209 168 164 205 221 227 224 233 233